Location: Arroyo de Valdeoliva
(40.1604°N, 4.9878°W)
Time: 12:18:32
(UTC+00:00)

ARIANE 6 FM1 Upper Stage - Pass Details

Date: 15 February 2026
Orbit: 523 x 607 km, 62.0° (Epoch: 8 March)

Event Time Altitude Azimuth Distance (km) Brightness Sun altitude
Rises 19:16:12 0° 334° (NNW) 2,657 6.4 -16.0°
Reaches altitude 10° 19:18:43 10° 349° (NNW) 1,766 5.3 -16.5°
Enters shadow 19:21:41 23° 37° (NE) 1,136 3.9 -17.0°
